Date String (YYYY-MM-DD hh:mm:ss) UTC,Instrument flags,Ambient pressure (hPa),Sample flow (lpm),Bypass flow (lpm),Sample temperature (°C),Ambient temperature (°C),ASC tube jacket temperature (°C),LED temperature (°C),Box temperature (°C),Sample RH (%),Span deviation,Mass concentration (μg/m³),Mass concentration (μg/m³),Mass concentration (μg/m³)
DateTimeUTC,F1_M11,P_M11,Q1_M11,Q2_M11,T1_M11,T2_M11,T3_M11,T4_M11,T5_M11,U1_M11,ZSPAN_M11,X0_M11,X2_M11,X1_M11
2022-04-27 02:00:00,,0823.5,5.02,0.00,29.9,29.1,00.0,38.7,31.7,06.0,0000.4,0039.62,0013.26,0006.04
2022-04-27 02:01:00,,0823.4,4.98,0.00,29.9,29.1,00.0,38.7,31.7,06.0,0000.5,0039.48,0013.25,0006.05
2022-04-27 02:02:00,,0823.5,4.99,0.00,29.9,29.1,00.0,38.7,31.8,06.1,0000.5,0039.46,0013.23,0006.06
2022-04-27 02:03:00,,0823.5,5.01,0.00,29.9,28.7,00.0,38.7,31.6,06.0,0000.3,0038.95,0013.31,0006.10
2022-04-27 02:04:00,,0823.5,5.00,0.00,29.8,26.5,00.0,38.7,31.1,06.0,0000.6,0038.77,0013.40,0006.12
2022-04-27 02:05:00,,0823.5,4.99,0.00,29.7,25.9,00.0,38.7,31.0,06.0,0000.6,0038.83,0013.39,0006.16
2022-04-27 02:06:00,,0823.5,5.00,0.00,29.6,26.2,00.0,38.6,31.0,06.0,0000.8,0039.23,0013.38,0006.19
2022-04-27 02:07:00,,0823.5,4.99,0.00,29.6,26.6,00.0,38.6,31.1,06.1,0000.7,0039.58,0013.31,0006.20
2022-04-27 02:08:00,,0823.5,5.00,0.00,29.6,27.1,00.0,38.5,31.2,06.1,0001.0,0039.28,0013.30,0006.22
2022-04-27 02:09:00,,0823.5,5.01,0.00,29.6,27.4,00.0,38.5,31.2,06.1,0003.0,0039.12,0013.24,0006.22
2022-04-27 02:10:00,,0823.5,5.01,0.00,29.6,27.7,00.0,38.5,31.3,06.1,0008.0,0038.06,0013.28,0006.19
2022-04-27 02:11:00,,0823.5,5.00,0.00,29.6,28.0,00.0,38.5,31.3,06.1,0012.8,0037.26,0013.33,0006.18
2022-04-27 02:12:00,,0823.5,5.00,0.00,29.6,28.2,00.0,38.5,31.4,06.1,0011.9,0037.22,0013.43,0006.19
2022-04-27 02:13:00,,0823.5,4.99,0.00,29.6,28.3,00.0,38.5,31.4,06.1,0006.4,0038.60,0013.51,0006.18
2022-04-27 02:14:00,,0823.6,5.01,0.00,29.7,28.4,00.0,38.5,31.4,06.0,0001.4,0039.13,0013.51,0006.18
2022-04-27 02:15:00,,0823.6,5.00,0.00,29.7,28.6,00.0,38.5,31.5,06.0,0003.1,0040.81,0013.54,0006.17
2022-04-27 02:16:00,,0823.6,4.99,0.00,29.7,28.6,00.0,38.6,31.5,06.0,0004.7,0042.06,0013.63,0006.12
2022-04-27 02:17:00,,0823.6,5.01,0.00,29.7,28.7,00.0,38.6,31.5,06.0,0004.6,0042.08,0013.71,0006.08
2022-04-27 02:18:00,,0823.6,4.99,0.00,29.8,28.8,00.0,38.6,31.5,06.0,0001.9,0042.04,0013.72,0006.09
2022-04-27 02:19:00,,0823.7,5.01,0.00,29.8,28.8,00.0,38.6,31.6,06.0,0001.4,0041.93,0013.78,0006.09
2022-04-27 02:20:00,,0823.7,5.01,0.00,29.8,28.9,00.0,38.6,31.7,06.0,0002.1,0042.27,0013.84,0006.09
2022-04-27 02:21:00,,0823.6,4.98,0.00,29.8,28.9,00.0,38.6,31.6,06.0,0003.9,0043.47,0013.98,0006.10
2022-04-27 02:22:00,,0823.6,5.01,0.00,29.9,28.9,00.0,38.7,31.6,06.0,0003.5,0043.32,0013.99,0006.12
2022-04-27 02:23:00,,0823.7,4.99,0.00,29.9,29.0,00.0,38.7,31.7,06.0,0003.1,0042.94,0014.00,0006.12
2022-04-27 02:24:00,,0823.7,4.99,0.00,29.9,29.0,00.0,38.7,31.7,06.0,0002.9,0042.50,0014.03,0006.11
2022-04-27 02:25:00,,0823.7,5.02,0.00,29.9,29.0,00.0,38.7,31.8,06.0,0003.2,0043.80,0013.97,0006.10
2022-04-27 02:26:00,,0823.7,4.99,0.00,29.9,29.0,00.0,38.7,31.8,06.0,0002.9,0042.53,0013.90,0006.09
2022-04-27 02:27:00,,0823.6,5.01,0.00,29.9,29.1,00.0,38.7,31.7,06.0,0002.7,0041.95,0013.91,0006.12
2022-04-27 02:28:00,,0823.7,5.01,0.00,29.9,29.1,00.0,38.7,31.8,06.0,0002.7,0041.88,0013.89,0006.14
2022-04-27 02:29:00,,0823.7,4.99,0.00,30.0,28.8,00.0,38.8,31.7,06.0,0003.0,0041.29,0013.83,0006.13
2022-04-27 02:30:00,,0823.7,5.00,0.00,29.8,26.6,00.0,38.7,31.1,06.0,0003.2,0041.65,0013.84,0006.13
2022-04-27 02:31:00,,0823.7,5.02,0.00,29.7,25.8,00.0,38.7,31.0,06.0,0003.0,0041.83,0013.89,0006.13
2022-04-27 02:32:00,,0823.6,4.99,0.00,29.6,26.0,00.0,38.6,31.0,06.1,0002.5,0040.78,0013.88,0006.11
2022-04-27 02:33:00,,0823.6,5.01,0.00,29.6,26.4,00.0,38.6,31.0,06.2,0002.6,0040.30,0013.76,0006.11
2022-04-27 02:34:00,,0823.7,5.00,0.00,29.5,26.9,00.0,38.6,31.1,06.2,0003.5,0041.45,0013.67,0006.08
2022-04-27 02:35:00,,0823.8,4.99,0.00,29.5,27.2,00.0,38.5,31.2,06.2,0003.9,0041.00,0013.54,0006.07
2022-04-27 02:36:00,,0823.7,5.01,0.00,29.6,27.6,00.0,38.5,31.3,06.3,0003.1,0039.64,0013.49,0006.06
2022-04-27 02:37:00,,0823.7,5.00,0.00,29.6,27.8,00.0,38.5,31.3,06.3,0003.8,0038.54,0013.38,0006.05
2022-04-27 02:38:00,,0823.8,5.00,0.00,29.6,28.0,00.0,38.5,31.3,06.3,0005.8,0038.08,0013.23,0006.02
2022-04-27 02:39:00,,0823.8,5.00,0.00,29.6,28.2,00.0,38.5,31.3,06.3,-000.1,0037.47,0013.12,0005.99
2022-04-27 02:40:00,,0823.8,4.99,0.00,29.6,28.3,00.0,38.5,31.4,06.2,0000.1,0037.20,0013.11,0005.98
2022-04-27 02:41:00,,0823.8,5.01,0.00,29.7,28.4,00.0,38.5,31.4,06.3,-000.7,0037.44,0013.06,0005.96
2022-04-27 02:42:00,,0823.7,4.99,0.00,29.7,28.5,00.0,38.6,31.5,06.3,-001.1,0037.17,0013.01,0005.95
2022-04-27 02:43:00,,0823.8,5.01,0.00,29.7,28.6,00.0,38.6,31.5,06.2,-000.9,0037.48,0012.99,0005.95
2022-04-27 02:44:00,,0823.8,5.00,0.00,29.7,28.7,00.0,38.6,31.5,06.2,-000.3,0038.82,0013.02,0005.94
2022-04-27 02:45:00,,0823.8,4.99,0.00,29.8,28.8,00.0,38.6,31.6,06.2,0001.0,0037.81,0013.03,0005.94
2022-04-27 02:46:00,,0823.8,5.01,0.00,29.8,28.8,00.0,38.6,31.5,06.3,0000.3,0038.26,0013.17,0005.95
2022-04-27 02:47:00,,0823.8,5.00,0.00,29.8,28.9,00.0,38.6,31.5,06.3,-000.7,0037.40,0013.21,0005.94
2022-04-27 02:48:00,,0823.8,4.99,0.00,29.8,28.9,00.0,38.6,31.6,06.3,-000.5,0039.34,0013.21,0005.94
2022-04-27 02:49:00,,0823.8,5.00,0.00,29.8,28.9,00.0,38.6,31.6,06.3,0000.9,0039.84,0013.25,0005.95
2022-04-27 02:50:00,,0823.8,5.01,0.00,29.8,28.9,00.0,38.7,31.7,06.3,0002.1,0040.12,0013.25,0005.94
2022-04-27 02:51:00,,0823.8,4.99,0.00,29.9,29.0,00.0,38.7,31.6,06.3,0002.3,0040.66,0013.22,0005.91
2022-04-27 02:52:00,,0823.8,4.99,0.00,29.9,29.0,00.0,38.7,31.7,06.4,0004.3,0040.80,0013.17,0005.89
2022-04-27 02:53:00,,0823.8,5.02,0.00,29.9,29.1,00.0,38.7,31.7,06.4,0002.7,0040.32,0013.10,0005.87
2022-04-27 02:54:00,,0823.8,5.00,0.00,29.9,29.1,00.0,38.7,31.7,06.4,0000.6,0040.49,0013.15,0005.85
2022-04-27 02:55:00,,0823.8,4.99,0.00,29.9,29.1,00.0,38.7,31.7,06.4,0000.3,0040.21,0013.10,0005.83
2022-04-27 02:56:00,,0823.8,5.02,0.00,30.0,29.1,00.0,38.8,31.7,06.4,-000.0,0040.54,0012.95,0005.80
2022-04-27 02:57:00,,0823.8,4.99,0.00,30.0,29.1,00.0,38.8,31.7,06.5,0000.5,0039.88,0012.76,0005.77
2022-04-27 02:58:00,,0823.8,5.01,0.00,30.0,29.2,00.0,38.8,31.8,06.4,0001.2,0040.19,0012.69,0005.73
2022-04-27 02:59:00,,0823.8,5.01,0.00,30.0,29.2,00.0,38.8,31.8,06.4,0002.2,0038.79,0012.74,0005.71
